Tracking 20719 objects as of 25-May-2020
HD Live streaming from Space Station
objects crossing your sky now

PALAPA B4

Track PALAPA B4 now!
PALAPA B4 is classified as:


NORAD ID: 21964
Int'l Code: 1992-027A
Perigee: 35,850.5 km
Apogee: 35,916.4 km
Inclination: 11.0 °
Period: 1,440.7 minutes
Semi major axis: 42254 km
RCS: 12.5892 m2 (large)
Launch date: May 14, 1992
Source: Indonesia (INDO)
Launch site: AIR FORCE EASTERN TEST RANGE (AFETR)

Palapa B-4 was an Indonesian communications spacecraft launched by a Delta rocket.
aabbcc
Your satellite tracking list
Your tracking list is empty




NASA's NSSDC Master Catalog

Two Line Element Set (TLE):
1 21964U 92027A   20143.50576925 -.00000148 +00000-0 +00000-0 0  9995
2 21964 011.0493 032.1644 0007809 351.2317 203.6405 00.99952630025031
Source of the keplerian elements: AFSPC